Back to catalog

STARLINK-11443

AliveCommunicationsVLEO
NORAD 62512·PAYLOAD·🇺🇸 United States

Launched Jan 8, 2025 from Cape Canaveral Space Force Station

Loading…

Next Passes (next 24 hours)

TLE

FreshSource: CelesTrak SupGP

Epoch: Sep 14, 2026, 14:35 UTC

1 62512C 25004B   26257.60812500 -.00016675  00000+0 -12962-3 0  2577
2 62512  43.0008  12.4131 0001640 269.9794 169.1817 15.70826327    17

Track STARLINK-11443 in real time with AllMySat

Download on the App Store